Location: Unspecified
(43.9000°N, 0.0000°E)
Time: 13:30:57

Humanity Star - Visible Passes

Search period start: 20 March 2018 00:00
Search period end: 30 March 2018 00:00
Orbit: 235 x 273 km, 82.9° (Epoch: 20 March)

Date Brightness Start Highest point End Pass type
(mag) Time Alt. Az. Time Alt. Az. Time Alt. Az.
20 Mar 4.3 05:14:12 10° NNW 05:16:27 47° W 05:18:43 10° S visible
21 Mar 4.3 05:06:37 10° NNW 05:08:42 43° W 05:10:48 10° S visible
22 Mar 3.3 04:49:20 10° NNW 04:51:07 71° W 04:51:11 70° WSW visible
